Location: Central Falls
(41.8900°N, 71.3929°W)
Time: 14:16:25
(UTC+00:00)

Vanguard 1 - Pass Details

Date: 09 December 2023
Orbit: 653 x 3826 km, 34.3° (Epoch: 24 February)

Event Time Altitude Azimuth Distance (km) Brightness Sun altitude
Rises 22:32:33 0° 249° (WSW) 5,218 15.8 -14.1°
Reaches altitude 10° 22:35:23 10° 246° (WSW) 4,552 14.9 -14.6°
Maximum altitude 22:49:07 65° 168° (SSE) 3,236 12.6 -17.0°
Enters shadow 23:06:23 20° 96° (E) 5,966 13.4 -20.1°
Drops below altitude 10° 23:11:19 10° 94° (E) 6,916 - -21.0°
Sets 23:16:53 0° 92° (E) 7,960 - -22.0°
